Limon, CO

8:03 PM MST on December 05, 2016 (GMT -0700)
Limon Municipal

Weather History for KLIC - April, 2014

Change the Weather History Date:

Friday, April 25, 2014

  Actual Average Record
Temperature  
Mean Temperature 50 °F -  
Max Temperature 73 °F - 81 °F (2012)
Min Temperature 27 °F - 19 °F (2006)
Degree Days  
Heating Degree Days 15    
Month to date heating degree days 481  
Cooling Degree Days 0    
Month to date cooling degree days 0  
Moisture  
Dew Point 20 °F    
Average Humidity 41    
Maximum Humidity 69    
Minimum Humidity 12    
Precipitation  
Precipitation 0.00 in - 0.72 in (1999)
Month to date precipitation 0.35  
Year to date precipitation 1.79  
Sea Level Pressure  
Sea Level Pressure 29.75 in    
Wind  
Wind Speed 9 mph (SSE)    
Max Wind Speed 26 mph    
Max Gust Speed 35 mph    
Visibility 10 miles    
Events      
T = Trace of Precipitation, MM = Missing Value Source: NWS Daily Summary

Daily Weather History Graph

Daily Weather History Graph

Search for Another Location

Airport or City:

Trip Planner

Search our weather history database for the weather conditions in past years. The results will help you decide how hot, cold, wet, or windy it might be!

Date:

Astronomy

Apr. 25, 2014 Rise Set
Actual Time 6:03 AM MDT 7:42 PM MDT
Civil Twilight 5:35 AM MDT 8:10 PM MDT
Nautical Twilight 5:00 AM MDT 8:45 PM MDT
Astronomical Twilight 4:24 AM MDT 9:21 PM MDT
Moon 3:51 AM MDT (4/25) 4:08 PM MDT (4/25)
Length of Visible Light 14h 35m
Length of Day
13h 38m
Waning Crescent, 15% of the Moon is Illuminated
Apr 25
Waning Crescent
Apr 29
New
May 6
First Quarter
May 14
Full
May 21
Last Quarter

Hourly Weather History & Observations

Time (MDT) Temp. Windchill Dew Point Humidity Pressure Visibility Wind Dir Wind Speed Gust Speed Precip Events Conditions
12:55 AM 34.0 °F 28.8 °F 19.9 °F 56% 29.89 in 10.0 mi North 5.8 mph - N/A   Clear
1:55 AM 30.9 °F 24.3 °F 19.9 °F 64% 29.88 in 10.0 mi North 6.9 mph - N/A   Clear
2:55 AM 28.9 °F 22.8 °F 19.9 °F 69% 29.87 in 10.0 mi NNE 5.8 mph - N/A   Clear
3:55 AM 30.0 °F 26.5 °F 19.9 °F 66% 29.86 in 10.0 mi WNW 3.5 mph - N/A   Clear
4:55 AM 34.0 °F 28.0 °F 19.9 °F 56% 29.85 in 10.0 mi North 6.9 mph - N/A   Clear
5:55 AM 30.0 °F 25.2 °F 19.9 °F 66% 29.86 in 10.0 mi NNW 4.6 mph - N/A   Clear
6:55 AM 36.0 °F - 24.1 °F 62% 29.86 in 10.0 mi Calm Calm - N/A   Clear
7:55 AM 51.1 °F - 25.0 °F 36% 29.86 in 10.0 mi West 8.1 mph - N/A   Clear
8:55 AM 59.0 °F - 25.0 °F 27% 29.84 in 10.0 mi Variable 3.5 mph - N/A   Clear
9:55 AM 62.1 °F - 21.9 °F 21% 29.82 in 10.0 mi SSE 10.4 mph - N/A   Clear
10:55 AM 64.9 °F - 21.0 °F 19% 29.82 in 10.0 mi South 12.7 mph 17.3 mph N/A   Clear
11:55 AM 66.9 °F - 19.9 °F 17% 29.78 in 10.0 mi South 13.8 mph 20.7 mph N/A   Clear
12:55 PM 69.1 °F - 19.9 °F 15% 29.77 in 10.0 mi South 15.0 mph 21.9 mph N/A   Clear
1:55 PM 71.1 °F - 17.1 °F 13% 29.74 in 10.0 mi SW 15.0 mph - N/A   Clear
2:55 PM 72.0 °F - 18.0 °F 13% 29.71 in 10.0 mi South 15.0 mph 24.2 mph N/A   Clear
3:55 PM 72.0 °F - 16.0 °F 12% 29.68 in 10.0 mi South 21.9 mph 29.9 mph N/A   Clear
4:55 PM 72.0 °F - 16.0 °F 12% 29.65 in 10.0 mi South 16.1 mph 27.6 mph N/A   Clear
5:55 PM 68.0 °F - 16.0 °F 14% 29.66 in 10.0 mi SSE 15.0 mph 25.3 mph N/A   Clear
6:55 PM 66.9 °F - 16.0 °F 14% 29.61 in 10.0 mi SE 19.6 mph 28.8 mph N/A   Clear
7:55 PM 60.1 °F - 18.0 °F 20% 29.59 in 10.0 mi SE 13.8 mph - N/A   Clear
8:55 PM 50.0 °F - 19.9 °F 31% 29.60 in 10.0 mi ESE 10.4 mph - N/A   Clear
9:55 PM 50.0 °F - 21.0 °F 32% 29.57 in 10.0 mi ESE 12.7 mph - N/A   Clear
11:55 PM 39.9 °F - 23.0 °F 51% 29.57 in 10.0 mi Calm Calm - N/A   Clear